TimeEDT,TemperatureF,Dew PointF,Humidity,Sea Level PressureIn,VisibilityMPH,Wind Direction,Wind SpeedMPH,Gust SpeedMPH,PrecipitationIn,Events,Conditions,WindDirDegrees,DateUTC
12:56 AM,48.0,39.9,74,29.99,10.0,Calm,Calm,-,N/A,,Clear,0,2012-11-03 04:56:00
1:56 AM,46.0,39.9,79,29.99,10.0,Calm,Calm,-,N/A,,Clear,0,2012-11-03 05:56:00
2:56 AM,43.0,39.9,89,30.01,10.0,ESE,3.5,-,N/A,,Clear,110,2012-11-03 06:56:00
3:56 AM,42.1,39.0,89,30.01,10.0,Calm,Calm,-,N/A,,Clear,0,2012-11-03 07:56:00
4:56 AM,44.1,39.0,82,30.01,10.0,Calm,Calm,-,N/A,,Clear,0,2012-11-03 08:56:00
5:56 AM,42.1,39.0,89,30.03,10.0,Calm,Calm,-,N/A,,Clear,0,2012-11-03 09:56:00
6:56 AM,42.1,37.9,85,30.04,10.0,Calm,Calm,-,N/A,,Clear,0,2012-11-03 10:56:00
7:56 AM,39.9,37.9,93,30.07,10.0,Calm,Calm,-,N/A,,Clear,0,2012-11-03 11:56:00
8:56 AM,44.1,41.0,89,30.09,10.0,Calm,Calm,-,N/A,,Clear,0,2012-11-03 12:56:00
9:56 AM,54.0,39.9,59,30.10,10.0,ENE,4.6,-,N/A,,Clear,70,2012-11-03 13:56:00
10:56 AM,59.0,39.0,48,30.10,10.0,Calm,Calm,-,N/A,,Clear,0,2012-11-03 14:56:00
11:56 AM,64.0,37.0,37,30.09,10.0,WSW,5.8,-,N/A,,Clear,250,2012-11-03 15:56:00
12:56 PM,66.9,35.1,31,30.07,10.0,SW,5.8,-,N/A,,Clear,230,2012-11-03 16:56:00
1:56 PM,70.0,37.9,31,30.04,10.0,West,9.2,-,N/A,,Clear,260,2012-11-03 17:56:00
2:56 PM,73.0,36.0,26,30.01,10.0,SW,9.2,-,N/A,,Clear,230,2012-11-03 18:56:00
3:56 PM,75.9,37.9,25,29.99,10.0,SW,5.8,-,N/A,,Clear,230,2012-11-03 19:56:00
4:56 PM,75.9,42.1,30,29.98,10.0,WSW,6.9,-,N/A,,Clear,250,2012-11-03 20:56:00
5:56 PM,73.9,45.0,35,29.97,10.0,South,4.6,-,N/A,,Clear,190,2012-11-03 21:56:00
6:56 PM,69.1,46.9,45,29.98,10.0,Calm,Calm,-,N/A,,Clear,0,2012-11-03 22:56:00
7:56 PM,63.0,48.0,58,29.98,10.0,Calm,Calm,-,N/A,,Clear,0,2012-11-03 23:56:00
8:56 PM,62.1,48.9,62,29.99,10.0,SSW,4.6,-,N/A,,Clear,210,2012-11-04 00:56:00
9:56 PM,60.1,50.0,69,29.99,10.0,SSW,4.6,-,N/A,,Clear,200,2012-11-04 01:56:00
10:56 PM,59.0,52.0,78,29.98,10.0,WSW,5.8,-,N/A,,Clear,240,2012-11-04 02:56:00
11:56 PM,61.0,53.1,75,29.98,10.0,SW,4.6,-,N/A,,Clear,220,2012-11-04 03:56:00